Location: Gu�tanj
(46.5431°N, 14.9692°E)
Time: 07:24:22
(UTC+00:00)

Cosmos 2074 Rocket - Pass Details

Date: 03 March 2021
Orbit: 967 x 986 km, 82.9° (Epoch: 18 April)

Event Time Altitude Azimuth Distance (km) Brightness Sun altitude
Rises 17:33:21 0° 188° (S) 3,676 7.1 -8.4°
Reaches altitude 10° 17:35:52 10° 189° (S) 2,730 6.5 -8.8°
Maximum altitude 17:42:08 84° 278° (W) 992 4.1 -9.9°
Drops below altitude 10° 17:48:26 10° 7° (N) 2,735 6.3 -11.0°
Sets 17:50:57 0° 9° (N) 3,683 7.0 -11.4°
